Henry Tift Myers AP, Tifton,, GA

6:43 PM EST on December 15, 2019 (GMT -0500)
Myers

Weather History for KTMA - October, 2019

Change the Weather History Date:

Wednesday, October 16, 2019

  Actual Average Record
Temperature  
Mean Temperature 72 °F -  
Max Temperature 79 °F 80 °F 90 °F (2018)
Min Temperature 64 °F 55 °F 52 °F (2015)
Cooling Degree Days 7    
Growing Degree Days 22 (Base 50)    
Moisture  
Dew Point 67 °F    
Average Humidity 83    
Maximum Humidity 100    
Minimum Humidity 63    
Precipitation  
Precipitation 0.00 in - - ()
Sea Level Pressure  
Sea Level Pressure 29.86 in    
Wind  
Wind Speed 6 mph ()    
Max Wind Speed 17 mph    
Max Gust Speed 22 mph    
Visibility 8.3 miles    
Events Rain    
Averages and records for this station are not official NWS values.
T = Trace of Precipitation, MM = Missing Value Source: Averaged Metar Reports

Daily Weather History Graph

Daily Weather History Graph

Search for Another Location

Airport or City:

Astronomy

Oct. 16, 2019 Rise Set
Actual Time 7:37 AM EDT 7:01 PM EDT
Civil Twilight 7:13 AM EDT 7:25 PM EDT
Nautical Twilight 6:44 AM EDT 7:53 PM EDT
Astronomical Twilight 6:16 AM EDT 8:21 PM EDT
Moon 9:02 PM EDT (10/16) 9:59 AM EDT (10/16)
Length of Visible Light 12h 12m
Length of Day
11h 23m
Waning Gibbous, 93% of the Moon is Illuminated
Oct 16
Waning Gibbous
Oct 21
Last Quarter
Oct 27
New
Nov 4
First Quarter
Nov 12
Full

Hourly Weather History & Observations

Time (EDT) Temp. Dew Point Humidity Pressure Visibility Wind Dir Wind Speed Gust Speed Precip Events Conditions
12:15 AM 67.3 °F 67.3 °F 100% 29.94 in 2.0 mi Calm Calm - N/A Rain Heavy Rain
12:35 AM 68.0 °F 68.0 °F 100% 29.93 in 2.5 mi SE 10.4 mph - N/A Rain Heavy Rain
12:55 AM 68.9 °F 68.2 °F 98% 29.93 in 2.5 mi Calm Calm - N/A Rain Heavy Rain
1:15 AM 68.4 °F 68.4 °F 100% 29.92 in 1.2 mi Calm Calm - N/A Rain Heavy Rain
1:35 AM 68.4 °F 68.2 °F 99% 29.91 in 5.0 mi Calm Calm - N/A Rain Rain
1:55 AM 68.4 °F 68.2 °F 99% 29.90 in 5.0 mi Calm Calm - N/A Rain Light Rain
2:15 AM 68.0 °F 68.0 °F 100% 29.89 in 5.0 mi Calm Calm - N/A Rain Rain
2:35 AM 68.0 °F 68.0 °F 100% 29.89 in 4.0 mi Calm Calm - N/A Rain Rain
2:55 AM 68.2 °F 68.2 °F 100% 29.88 in 5.0 mi SE 4.6 mph - N/A   Light Drizzle
3:15 AM 68.9 °F 68.7 °F 99% 29.86 in 10.0 mi SSE 5.8 mph - N/A   Overcast
3:35 AM 69.6 °F 69.3 °F 99% 29.86 in 10.0 mi South 8.1 mph - N/A   Overcast
3:55 AM 69.8 °F 69.8 °F 100% 29.85 in 7.0 mi South 5.8 mph - N/A   Light Drizzle
4:15 AM 70.0 °F 69.8 °F 99% 29.86 in 7.0 mi SSW 6.9 mph - N/A   Overcast
4:35 AM 70.2 °F 70.0 °F 99% 29.85 in 5.0 mi SSW 6.9 mph - N/A   Overcast
4:55 AM 70.3 °F 70.3 °F 100% 29.85 in 5.0 mi SW 4.6 mph - N/A   Overcast
5:15 AM 70.7 °F 70.7 °F 100% 29.85 in 2.5 mi SSW 4.6 mph - N/A Rain Rain
5:35 AM 70.9 °F 70.9 °F 100% 29.83 in 3.0 mi SSW 5.8 mph - N/A Rain Light Rain
5:55 AM 71.1 °F 71.1 °F 100% 29.81 in 5.0 mi South 5.8 mph - N/A Rain Light Rain
6:15 AM 71.4 °F 71.4 °F 100% 29.79 in 4.0 mi South 10.4 mph - N/A   Overcast
6:35 AM 71.6 °F 71.6 °F 100% 29.79 in 5.0 mi South 6.9 mph 16.1 mph N/A   Overcast
6:55 AM 71.6 °F 71.6 °F 100% 29.79 in 4.0 mi SSW 5.8 mph - N/A   Overcast
7:15 AM 72.1 °F 72.0 °F 99% 29.81 in 7.0 mi WSW 5.8 mph - N/A Rain Light Rain
7:35 AM 72.3 °F 72.1 °F 99% 29.82 in 7.0 mi WSW 6.9 mph - N/A   Overcast
7:55 AM 72.5 °F 72.5 °F 100% 29.82 in 5.0 mi West 6.9 mph - N/A Rain Heavy Rain
8:15 AM 73.2 °F 72.1 °F 96% 29.82 in 10.0 mi West 6.9 mph 17.3 mph N/A   Overcast
8:35 AM 73.0 °F 71.8 °F 96% 29.83 in 10.0 mi West 8.1 mph - N/A   Overcast
8:55 AM 73.4 °F 71.6 °F 94% 29.84 in 10.0 mi West 8.1 mph - N/A   Overcast
9:15 AM 73.6 °F 71.2 °F 92% 29.85 in 10.0 mi West 8.1 mph - N/A   Overcast
9:35 AM 73.6 °F 70.7 °F 91% 29.85 in 10.0 mi West 9.2 mph 17.3 mph N/A   Overcast
9:55 AM 73.8 °F 70.2 °F 88% 29.85 in 10.0 mi West 8.1 mph - N/A   Overcast
10:15 AM 74.3 °F 70.2 °F 87% 29.85 in 10.0 mi West 10.4 mph 16.1 mph N/A   Overcast
10:35 AM 74.5 °F 69.4 °F 84% 29.85 in 10.0 mi WNW 10.4 mph 21.9 mph N/A   Overcast
10:55 AM 75.0 °F 69.1 °F 82% 29.86 in 10.0 mi WNW 11.5 mph 20.7 mph N/A   Overcast
11:15 AM 76.6 °F 69.1 °F 77% 29.85 in 10.0 mi WNW 12.7 mph 19.6 mph N/A   Mostly Cloudy
11:35 AM 76.8 °F 68.5 °F 75% 29.86 in 10.0 mi WNW 10.4 mph 18.4 mph N/A   Mostly Cloudy
11:55 AM 77.5 °F 68.0 °F 72% 29.86 in 10.0 mi West 12.7 mph 20.7 mph N/A   Mostly Cloudy
12:15 PM 78.8 °F 67.6 °F 68% 29.85 in 10.0 mi West 11.5 mph 17.3 mph N/A   Scattered Clouds
12:35 PM 78.6 °F 67.5 °F 68% 29.86 in 10.0 mi West 13.8 mph 20.7 mph N/A   Mostly Cloudy
12:55 PM 77.9 °F 67.6 °F 71% 29.86 in 10.0 mi WNW 10.4 mph 18.4 mph N/A   Overcast
1:15 PM 79.0 °F 67.5 °F 68% 29.86 in 10.0 mi West 16.1 mph 19.6 mph N/A   Overcast
1:35 PM 79.0 °F 68.0 °F 69% 29.86 in 10.0 mi West 10.4 mph 17.3 mph N/A   Overcast
1:55 PM 77.9 °F 68.0 °F 71% 29.85 in 10.0 mi WNW 11.5 mph - N/A   Overcast
2:15 PM 77.4 °F 67.5 °F 71% 29.85 in 10.0 mi WNW 9.2 mph 17.3 mph N/A   Overcast
2:35 PM 77.5 °F 68.0 °F 72% 29.86 in 10.0 mi WNW 9.2 mph - N/A   Overcast
2:55 PM 78.3 °F 68.0 °F 71% 29.85 in 10.0 mi West 9.2 mph 17.3 mph N/A   Mostly Cloudy
3:15 PM 79.3 °F 67.5 °F 67% 29.84 in 10.0 mi WNW 15.0 mph 19.6 mph N/A   Overcast
3:35 PM 78.1 °F 66.9 °F 68% 29.84 in 10.0 mi WNW 11.5 mph 18.4 mph N/A   Overcast
3:55 PM 77.9 °F 66.6 °F 68% 29.82 in 10.0 mi WNW 12.7 mph - N/A   Mostly Cloudy
4:15 PM 77.4 °F 66.2 °F 68% 29.82 in 10.0 mi West 6.9 mph - N/A   Clear
4:35 PM 77.9 °F 65.5 °F 65% 29.83 in 10.0 mi WNW 10.4 mph - N/A   Clear
4:55 PM 78.8 °F 65.7 °F 64% 29.83 in 10.0 mi West 12.7 mph - N/A   Clear
5:15 PM 79.2 °F 65.7 °F 63% 29.82 in 10.0 mi WNW 15.0 mph - N/A   Scattered Clouds
5:35 PM 78.6 °F 65.7 °F 64% 29.82 in 10.0 mi WNW 11.5 mph 16.1 mph N/A   Scattered Clouds
5:55 PM 78.1 °F 65.5 °F 65% 29.82 in 10.0 mi WNW 10.4 mph - N/A   Scattered Clouds
6:15 PM 77.7 °F 65.5 °F 66% 29.81 in 10.0 mi WNW 11.5 mph - N/A   Clear
6:35 PM 77.0 °F 65.7 °F 68% 29.82 in 10.0 mi West 9.2 mph - N/A   Clear
6:55 PM 75.7 °F 65.8 °F 71% 29.82 in 10.0 mi WNW 5.8 mph - N/A   Clear
7:15 PM 74.8 °F 66.2 °F 74% 29.83 in 10.0 mi WNW 6.9 mph - N/A   Clear
7:35 PM 73.9 °F 66.2 °F 77% 29.83 in 10.0 mi West 4.6 mph - N/A   Clear
7:55 PM 73.4 °F 66.2 °F 78% 29.83 in 10.0 mi West 3.5 mph - N/A   Clear
8:15 PM 72.9 °F 66.4 °F 80% 29.85 in 10.0 mi West 3.5 mph - N/A   Clear
8:35 PM 72.1 °F 66.4 °F 82% 29.85 in 10.0 mi West 3.5 mph - N/A   Clear
8:55 PM 72.0 °F 66.2 °F 82% 29.86 in 10.0 mi WNW 5.8 mph - N/A   Clear
9:15 PM 71.6 °F 66.2 °F 83% 29.87 in 10.0 mi WNW 6.9 mph - N/A   Scattered Clouds
9:35 PM 71.1 °F 65.5 °F 82% 29.88 in 10.0 mi NW 6.9 mph - N/A   Scattered Clouds
9:55 PM 70.9 °F 64.2 °F 79% 29.89 in 10.0 mi NW 10.4 mph - N/A   Clear
10:15 PM 70.3 °F 60.1 °F 70% 29.91 in 10.0 mi NNW 17.3 mph - N/A   Clear
10:35 PM 69.1 °F 58.8 °F 70% 29.93 in 10.0 mi NNW 10.4 mph 16.1 mph N/A   Clear
10:55 PM 68.4 °F 56.3 °F 65% 29.93 in 10.0 mi NNW 15.0 mph 20.7 mph N/A   Clear
11:15 PM 67.1 °F 56.3 °F 68% 29.94 in 10.0 mi NNW 8.1 mph - N/A   Clear
11:35 PM 65.5 °F 56.3 °F 72% 29.95 in 10.0 mi NNW 8.1 mph - N/A   Clear
11:55 PM 64.6 °F 53.4 °F 67% 29.96 in 10.0 mi NNW 10.4 mph - N/A   Clear